Terminal Aerodrome Forecast
Issued by NWS Cleveland, OH

Home | Current Version | Previous Version | Text Only | Print | Product List | Glossary Off
Versions: 1 2 3 4 5 6 7 8 9 10 11 12 13 14 15 16 17 18 19 20 21 22 23 24 25 26 27 28

000
FTUS41 KCLE 301100
TAFCLE
TAF
KCLE 301120Z 3012/0118 35010KT P6SM OVC035
     FM301300 35010KT P6SM VCSH OVC035
     FM010000 36007KT P6SM OVC007
     FM010500 36005KT P6SM SCT050
     FM010900 01006KT P6SM SKC=

USA.gov is the U.S. government's official web portal to all federal, state and local government web resources and services.